South Bend, IN

12:09 AM EST on December 17, 2017 (GMT -0500)
South Bend Regional

Weather History for KSBN - August, 2013

Change the Weather History Date:

Monday, August 26, 2013

  Actual Average Record
Temperature  
Mean Temperature 77 °F 70 °F  
Max Temperature 88 °F 80 °F 97 °F (1948)
Min Temperature 66 °F 61 °F 43 °F (1945)
Degree Days  
Heating Degree Days 0 1  
Month to date heating degree days 15 3  
Since 1 June heating degree days 66 52  
Since 1 July heating degree days 29 8  
Cooling Degree Days 12 6  
Month to date cooling degree days 126 178  
Year to date cooling degree days 616 652  
Since 1 June cooling degree days 520 596  
Growing Degree Days 27 (Base 50)    
Moisture  
Dew Point 65 °F    
Average Humidity 66    
Maximum Humidity 79    
Minimum Humidity 43    
Precipitation  
Precipitation 0.00 in 0.12 in 1.59 in (1987)
Month to date precipitation 2.99 3.16  
Year to date precipitation 26.88 24.67  
Snow  
Snow 0.00 in - - ()
Month to date snowfall 0.0  
Since 1 June snowfall 0.0  
Snow Depth 0.00 in    
Sea Level Pressure  
Sea Level Pressure 30.12 in    
Wind  
Wind Speed 9 mph (SW)    
Max Wind Speed 17 mph    
Max Gust Speed 22 mph    
Visibility 10 miles    
Events      
T = Trace of Precipitation, MM = Missing Value Source: NWS Daily Summary

Daily Weather History Graph

Daily Weather History Graph

Search for Another Location

Airport or City:

Trip Planner

Search our weather history database for the weather conditions in past years. The results will help you decide how hot, cold, wet, or windy it might be!

Date:

Astronomy

Aug. 26, 2013 Rise Set
Actual Time 7:05 AM EDT 8:27 PM EDT
Civil Twilight 6:36 AM EDT 8:56 PM EDT
Nautical Twilight 6:01 AM EDT 9:31 PM EDT
Astronomical Twilight 5:24 AM EDT 10:08 PM EDT
Moon 11:32 PM EDT (8/26) 1:12 PM EDT (8/26)
Length of Visible Light 14h 20m
Length of Day
13h 22m
Waning Gibbous, 67% of the Moon is Illuminated
Aug 26
Waning Gibbous
Aug 28
Last Quarter
Sep 5
New
Sep 12
First Quarter
Sep 19
Full

Hourly Weather History & Observations

Time (EDT) Temp. Heat Index Dew Point Humidity Pressure Visibility Wind Dir Wind Speed Gust Speed Precip Events Conditions
12:54 AM 72.0 °F - 61.0 °F 68% 30.20 in 10.0 mi SW 5.8 mph - N/A   Clear
1:54 AM 70.0 °F - 61.0 °F 73% 30.18 in 10.0 mi SSW 5.8 mph - N/A   Clear
2:54 AM 70.0 °F - 60.1 °F 71% 30.15 in 10.0 mi SW 8.1 mph - N/A   Clear
3:54 AM 68.0 °F - 60.1 °F 76% 30.16 in 10.0 mi SW 6.9 mph - N/A   Clear
4:54 AM 66.9 °F - 60.1 °F 79% 30.16 in 10.0 mi SW 6.9 mph - N/A   Clear
5:54 AM 66.9 °F - 60.1 °F 79% 30.17 in 10.0 mi SW 8.1 mph - N/A   Clear
6:54 AM 66.0 °F - 59.0 °F 78% 30.17 in 10.0 mi SW 8.1 mph - N/A   Clear
7:54 AM 66.9 °F - 59.0 °F 76% 30.17 in 10.0 mi SW 6.9 mph - N/A   Clear
8:54 AM 71.1 °F - 60.1 °F 68% 30.17 in 10.0 mi SW 9.2 mph - N/A   Clear
9:54 AM 73.0 °F - 63.0 °F 71% 30.17 in 10.0 mi SW 9.2 mph - N/A   Clear
10:54 AM 75.9 °F - 66.0 °F 71% 30.17 in 10.0 mi WSW 5.8 mph - N/A   Clear
11:54 AM 82.0 °F 84.5 °F 66.9 °F 60% 30.16 in 10.0 mi West 9.2 mph - N/A   Clear
12:54 PM 84.0 °F 87.0 °F 68.0 °F 58% 30.15 in 10.0 mi West 6.9 mph - N/A   Clear
1:54 PM 86.0 °F 88.8 °F 66.9 °F 53% 30.12 in 10.0 mi WSW 12.7 mph - N/A   Clear
2:54 PM 88.0 °F 92.1 °F 69.1 °F 53% 30.09 in 10.0 mi WSW 9.2 mph - N/A   Clear
3:54 PM 87.1 °F 91.3 °F 69.1 °F 55% 30.05 in 10.0 mi SW 16.1 mph - N/A   Clear
4:54 PM 84.9 °F 89.4 °F 70.0 °F 61% 30.04 in 10.0 mi WSW 10.4 mph - N/A   Clear
5:54 PM 86.0 °F 90.7 °F 70.0 °F 59% 30.05 in 10.0 mi WSW 13.8 mph - N/A   Clear
6:54 PM 84.9 °F 89.4 °F 70.0 °F 61% 30.05 in 10.0 mi SW 10.4 mph - N/A   Clear
7:54 PM 82.9 °F 87.0 °F 70.0 °F 65% 30.04 in 10.0 mi SSW 6.9 mph - N/A   Clear
8:54 PM 80.1 °F 83.2 °F 70.0 °F 71% 30.04 in 10.0 mi SW 6.9 mph - N/A   Clear
9:54 PM 78.1 °F - 69.1 °F 74% 30.04 in 10.0 mi SW 6.9 mph - N/A   Clear
10:54 PM 78.1 °F - 69.1 °F 74% 30.04 in 10.0 mi SW 6.9 mph - 0.00 in   Clear
11:54 PM 77.0 °F - 66.9 °F 71% 30.03 in 10.0 mi SW 9.2 mph - N/A   Clear